This demonstration page uses our WeatherBlox Daily Observations layout. Learn more.

Left ArrowRight Arrow

39.12711, -84.51439

Hourly Observations for May 27, 2016

Temp ( °F °C ) Dew Point ( °F °C ) Humidity (%) Winds ( mph kmh ) Pressure ( in mb ) Visibility ( mi km ) Precip ( " mm )
12:05 am 00:05 Mostly Clear with Fog 63 17.2 63 17.2 100 100 Calm 30.00 1016 1 1 0.00 0.00
12:21 am 00:21 Mostly Clear with Mist and Fog 62 16.7 62 16.7 100 100 Calm 30.00 1016 1 2 0.00 0.00
12:32 am 00:32 Mostly Clear with Mist and Fog 63 17 63 17 100 100 Calm 30.00 1016 3 5 0.00 0.00
12:38 am 00:38 Mostly Clear with Mist and Fog 63 17 63 17 100 100 SSW 3 6 30.00 1016 2 3 0.00 0.00
12:48 am 00:48 Mostly Clear with Mist and Fog 63 17 63 17 100 100 SW 3 6 30.03 1017 1 1 0.00 0.00
12:53 am 00:53 Mostly Clear with Mist and Fog 62 16.7 62 16.7 100 100 SW 3 6 30.04 1017 2 2 0.00 0.00
12:57 am 00:57 Mostly Clear with Mist and Fog 63 17.2 63 17.2 100 100 Calm 30.00 1016 3 5 0.00 0.00
1:05 am 01:05 Mostly Clear with Mist and Fog 63 17.2 63 17.2 100 100 S 3 6 30.00 1016 2 3 0.00 0.00
1:12 am 01:12 Mostly Clear with Fog 63 17 63 17 100 100 Calm 30.00 1016 0 0 0.00 0.00
1:21 am 01:21 Mostly Clear with Mist and Fog 62 16.7 62 16.7 100 100 Calm 30.00 1016 1 2 0.00 0.00
1:24 am 01:24 Mostly Clear with Mist and Fog 63 17 63 17 100 100 Calm 30.00 1016 3 5 0.00 0.00
1:53 am 01:53 Clear 62 16.7 62 16.7 100 100 Calm 30.02 1017 7 11 0.00 0.00
2:01 am 02:01 Clear with Mist and Fog 62 16.7 62 16.7 100 100 SW 3 6 30.00 1016 2 3 0.00 0.00
2:11 am 02:11 Mostly Clear with Fog 62 16.7 62 16.7 100 100 Calm 30.00 1016 1 1 0.00 0.00
2:17 am 02:17 Mostly Clear with Mist and Fog 62 16.7 62 16.7 100 100 Calm 30.00 1016 3 4 0.00 0.00
2:24 am 02:24 Mostly Clear with Mist and Fog 63 17 63 17 100 100 Calm 30.00 1016 3 5 0.00 0.00
2:28 am 02:28 Mostly Clear with Mist and Fog 63 17 63 17 100 100 Calm 30.00 1016 2 3 0.00 0.00
2:53 am 02:53 Mostly Cloudy with Fog 60 15.6 60 15.6 100 100 Calm 30.03 1017 1 1 0.00 0.00
2:59 am 02:59 Mostly Clear with Fog 60 15.6 60 15.6 100 100 Calm 30.00 1016 0 0 0.00 0.00
3:15 am 03:15 Mostly Clear with Fog 61 16.1 61 16.1 100 100 Calm 30.00 1016 1 1 0.00 0.00
3:34 am 03:34 Mostly Clear with Mist and Fog 61 16.1 61 16.1 100 100 Calm 30.00 1016 1 2 0.00 0.00
3:42 am 03:42 Mostly Clear with Fog 61 16 61 16 100 100 Calm 30.00 1016 1 1 0.00 0.00
3:53 am 03:53 Mostly Clear with Fog 61 16.1 61 16.1 100 100 Calm 30.02 1017 1 1 0.00 0.00
4:06 am 04:06 Mostly Clear with Fog 61 16 61 16 100 100 Calm 30.00 1016 0 0 0.00 0.00
4:20 am 04:20 Mostly Clear with Mist and Fog 61 16 61 16 100 100 Calm 30.00 1016 1 1 0.00 0.00
4:28 am 04:28 Mostly Clear with Mist and Fog 60 15.6 60 15.6 100 100 Calm 30.00 1016 1 2 0.00 0.00
4:38 am 04:38 Mostly Clear with Fog 61 16 61 16 100 100 Calm 30.00 1016 1 1 0.00 0.00
4:53 am 04:53 Mostly Clear with Fog 60 15.6 60 15.6 100 100 Calm 30.04 1017 0 0 0.00 0.00
5:05 am 05:05 Mostly Clear with Mist and Fog 60 15.6 60 15.6 100 100 Calm 30.00 1016 1 1 0.00 0.00
5:22 am 05:22 Mostly Cloudy with Fog 59 15 59 15 100 100 Calm 30.00 1016 0 0 0.00 0.00
5:53 am 05:53 Mostly Cloudy with Fog 61 16.1 61 16.1 100 100 Calm 30.03 1017 0 0 0.00 0.00
6:53 am 06:53 Mostly Cloudy with Fog 61 16.1 61 16.1 100 100 Calm 30.04 1017 0 0 0.00 0.00
7:28 am 07:28 Mostly Cloudy with Mist and Fog 62 16.7 62 16.7 100 100 WSW 3 6 30.03 1017 1 1 0.00 0.00
7:39 am 07:39 Partly Cloudy with Mist and Fog 62 16.7 62 16.7 100 100 Calm 30.03 1017 2 3 0.00 0.00
7:48 am 07:48 Partly Cloudy with Mist and Fog 63 17 63 17 100 100 Calm 30.03 1017 5 8 0.00 0.00
7:53 am 07:53 Partly Cloudy with Mist and Fog 62 16.7 62 16.7 100 100 Calm 30.04 1017 5 8 0.00 0.00
8:53 am 08:53 Sunny 67 19.4 66 18.9 97 97 SSW 5 7 30.04 1017 10 16 0.00 0.00
9:53 am 09:53 Sunny 72 22.2 67 19.4 84 84 S 7 11 30.04 1017 10 16 0.00 0.00
10:53 am 10:53 Mostly Sunny 76 24.4 69 20.6 79 79 S 9 15 30.03 1017 10 16 0.00 0.00
11:53 am 11:53 Mostly Sunny 78 25.6 68 20 71 71 S 7 11 30.03 1017 10 16 0.00 0.00
12:53 pm 12:53 Sunny 82 27.8 68 20 63 63 SSW 10 17 30.02 1017 10 16 0.00 0.00
1:53 pm 13:53 Partly Cloudy 83 28.3 68 20 61 61 SSW 10 17 30.01 1016 10 16 0.00 0.00
2:53 pm 14:53 Mostly Cloudy 83 28.3 68 20 61 61 SSW 10 17 29.99 1016 10 16 0.00 0.00
3:53 pm 15:53 Mostly Sunny 85 29.4 67 19.4 55 55 S 14 22 29.98 1015 10 16 0.00 0.00
4:53 pm 16:53 Partly Cloudy 84 28.9 67 19.4 57 57 S 9 15 29.98 1015 10 16 0.00 0.00
5:53 pm 17:53 Partly Cloudy 83 28.3 66 18.9 57 57 SSW 12 19 29.96 1015 10 16 0.00 0.00
6:53 pm 18:53 Sunny 80 26.7 67 19.4 64 64 S 7 11 29.95 1014 10 16 0.00 0.00
7:53 pm 19:53 Sunny 80 26.7 69 20.6 69 69 SSE 5 7 29.96 1014 10 16 0.00 0.00
8:53 pm 20:53 Sunny 75 23.9 71 21.7 88 88 Calm 29.97 1015 10 16 0.00 0.00
9:53 pm 21:53 Clear 71 21.7 69 20.6 94 94 Calm 29.98 1015 10 16 0.00 0.00
10:53 pm 22:53 Clear 69 20.6 68 20 96 96 Calm 30.01 1016 10 16 0.00 0.00
11:53 pm 23:53 Clear 68 20 68 20 100 100 Calm 30.01 1016 9 14 0.00 0.00

Powered by AerisWeather